STARLINK-4609, 53619

Orbit data source: Space-Track

STARLINK-4609, 53619 is a payload satellite owned by SpaceX/Seattle (US) in LEO that was launched on Sun, 28 Aug 2022 UTC via an FALCON 9 launch vehicle from the Air Force Eastern Test Range (AFETR). Payload-class satellites include a variety of spacecraft equipped with specific instruments for various scientific and technological missions. These include communications satellites like Starlink; space stations such as the ISS; scientific satellites like the Hubble; Earth observation satellites from companies like Planet Labs, Umbra, and HawkEye 360; GPS; miniature CubeSats for education and research; and military/defense satellites.

Loading next visibility...
Identifier
53619, 2022-104AH
Orbit
LEO
Country
Flag of USUS
Related business
Manufacturer
SpaceX/Seattle
Mission
Operational Commercial Communications
Bus & Motor
STARLINK, Unknown motor
Mass
300 kg wet, ~290 kg dry
Launch date (UTC)
2022-08-28 (3 years ago)
Launch vehicle
FALCON 9
Launch site
Air Force Eastern Test Range (AFETR)
Object type
Payload
Rocket body
Debris
Shape & HBR
Box + 1 Pan, 10.1 m
Radar Cross Section
13.562 m², Large (>1 m²)

Expand to show TLE details & history
Last TLE update: 1 day ago

TLE from 1 day ago
0 STARLINK-4609
1 53619U 22104AH  26036.35502885  .00000734  00000-0  64198-4 0  9992
2 53619  53.2195  19.2694 0001341  93.5007 266.6138 15.08841165190758
Epoch: 2026-02-05T08:31Z
TLE epoch observation values (Epoch: 2026-02-05T08:31:14.492Z)
Latitude
-0.00008°
Longitude
115.95051°
Altitude
540.692 km
Speed
7.593 km/s
True Right ascension
01h 17m 04s
True Declination
0° 00' 00"
Sunlit
Object was in daylight at epoch
Visualization orbit readout
Latitude
Unknown
Longitude
Unknown
Altitude
Unknown
Speed
Unknown
Apparent Right ascension
Unknown
Apparent Declination
Unknown
Sunlit
N/A
Visualization observer readout
Local Sidereal Time
12:07:04
Azimuth
Unknown
Elevation
Unknown
Doppler factor
Unknown
Orbital elements
Apogee altitude
540.912 km
Perigee altitude
539.057 km
Semi-major axis
6,918.121 km
Eccentricity
0.00013
Inclination
53.2195°
RAAN
19.2694°
Arg. of periapsis
93.5007°
True anomaly
266.59846°
Mean anomaly
266.6138°
Eccentric anomaly
266.60613°
Mean motion
3.77191 °/min
Orbital period
95.44 mins
BSTAR
0.000064198
Loading maneuver chart data...
Computing Atmospheric mass density...
Loading historical data...
Loading historical data...
Loading historical data...
Loading historical data...
Loading historical data...
Loading historical data...
Loading historical data...

Documentation

Showing up to 5 results
|